Time,TemperatureF,DewpointF,PressureIn,WindDirection,WindDirectionDegrees,WindSpeedMPH,WindSpeedGustMPH,Humidity,HourlyPrecipIn,Conditions,Clouds,dailyrainin,SolarRadiationWatts/m^2,SoftwareType,DateUTC
2014-01-03 00:05:00,-11.2,-17.2,30.49,SW,229,0.0,2.0,74,0.00,,,0.00,0,Wunderground v.1.15,2014-01-03 06:05:00,
2014-01-03 00:15:00,-11.0,-17.0,30.49,SW,229,0.0,2.0,74,0.00,,,0.00,0,Wunderground v.1.15,2014-01-03 06:15:00,
2014-01-03 00:25:00,-11.0,-17.0,30.49,SW,229,0.0,2.0,74,0.00,,,0.00,0,Wunderground v.1.15,2014-01-03 06:25:00,
2014-01-03 00:35:00,-10.9,-16.9,30.49,SW,229,0.0,2.0,74,0.00,,,0.00,0,Wunderground v.1.15,2014-01-03 06:35:00,
2014-01-03 00:40:00,-11.0,-17.0,30.49,SW,229,0.0,2.0,74,0.00,,,0.00,0,Wunderground v.1.15,2014-01-03 06:40:00,
2014-01-03 00:50:00,-11.0,-17.0,30.49,SW,229,0.0,2.0,74,0.00,,,0.00,0,Wunderground v.1.15,2014-01-03 06:50:00,
2014-01-03 01:00:00,-11.1,-17.1,30.49,SW,229,0.0,2.0,74,0.00,,,0.00,0,Wunderground v.1.15,2014-01-03 07:00:00,
2014-01-03 01:05:00,-11.1,-17.1,30.49,SW,229,0.0,2.0,74,0.00,,,0.00,0,Wunderground v.1.15,2014-01-03 07:05:00,
2014-01-03 01:15:00,-11.3,-17.3,30.49,SW,229,0.0,2.0,74,0.00,,,0.00,0,Wunderground v.1.15,2014-01-03 07:15:00,
2014-01-03 01:25:00,-11.2,-17.2,30.49,SW,229,0.0,2.0,74,0.00,,,0.00,0,Wunderground v.1.15,2014-01-03 07:25:00,
2014-01-03 01:35:00,-11.1,-17.1,30.48,SW,229,0.0,2.0,74,0.00,,,0.00,0,Wunderground v.1.15,2014-01-03 07:35:00,
2014-01-03 01:40:00,-11.0,-17.0,30.48,SW,229,0.0,2.0,74,0.00,,,0.00,0,Wunderground v.1.15,2014-01-03 07:40:00,
2014-01-03 01:50:00,-11.1,-17.1,30.47,SW,229,0.0,2.0,74,0.00,,,0.00,0,Wunderground v.1.15,2014-01-03 07:50:00,
2014-01-03 02:00:00,-11.2,-17.2,30.47,SW,229,0.0,2.0,74,0.00,,,0.00,0,Wunderground v.1.15,2014-01-03 08:00:00,
2014-01-03 02:10:00,-11.1,-17.1,30.48,SW,229,0.0,2.0,74,0.00,,,0.00,0,Wunderground v.1.15,2014-01-03 08:10:00,
2014-01-03 02:15:00,-11.2,-17.2,30.47,SW,229,0.0,2.0,74,0.00,,,0.00,0,Wunderground v.1.15,2014-01-03 08:15:00,
2014-01-03 02:25:00,-11.5,-17.5,30.47,SW,229,1.0,3.0,74,0.00,,,0.00,0,Wunderground v.1.15,2014-01-03 08:25:00,
2014-01-03 02:35:00,-12.0,-18.0,30.46,SW,229,1.0,2.0,74,0.00,,,0.00,0,Wunderground v.1.15,2014-01-03 08:35:00,
2014-01-03 02:40:00,-11.8,-17.5,30.46,SW,229,2.0,2.0,75,0.00,,,0.00,0,Wunderground v.1.15,2014-01-03 08:40:00,
2014-01-03 02:45:00,-11.6,-17.3,30.45,SW,229,1.0,2.0,75,0.00,,,0.00,0,Wunderground v.1.15,2014-01-03 08:45:00,
2014-01-03 02:55:00,-11.7,-17.4,30.45,SW,228,2.0,3.0,75,0.00,,,0.00,0,Wunderground v.1.15,2014-01-03 08:55:00,
2014-01-03 03:00:00,-11.9,-17.6,30.44,SW,228,1.0,1.0,75,0.00,,,0.00,0,Wunderground v.1.15,2014-01-03 09:00:00,
2014-01-03 03:10:00,-11.8,-17.5,30.44,SW,217,2.0,3.0,75,0.00,,,0.00,0,Wunderground v.1.15,2014-01-03 09:10:00,
2014-01-03 03:15:00,-11.7,-17.1,30.43,SSW,213,2.0,3.0,76,0.00,,,0.00,0,Wunderground v.1.15,2014-01-03 09:15:00,
2014-01-03 03:25:00,-11.7,-17.1,30.42,SSW,211,3.0,3.0,76,0.00,,,0.00,0,Wunderground v.1.15,2014-01-03 09:25:00,
2014-01-03 03:30:00,-11.6,-17.0,30.42,SSW,210,3.0,3.0,76,0.00,,,0.00,0,Wunderground v.1.15,2014-01-03 09:30:00,
2014-01-03 03:40:00,-11.5,-17.0,30.41,SSW,211,3.0,5.0,76,0.00,,,0.00,0,Wunderground v.1.15,2014-01-03 09:40:00,
2014-01-03 03:50:00,-11.3,-16.5,30.40,SSW,207,3.0,3.0,77,0.00,,,0.00,0,Wunderground v.1.15,2014-01-03 09:50:00,
2014-01-03 04:00:00,-10.9,-16.1,30.39,South,184,4.0,4.0,77,0.00,,,0.00,0,Wunderground v.1.15,2014-01-03 10:00:00,
2014-01-03 04:10:00,-10.7,-15.9,30.39,South,169,4.0,5.0,77,0.00,,,0.00,0,Wunderground v.1.15,2014-01-03 10:10:00,
2014-01-03 04:20:00,-10.3,-15.5,30.38,SSE,166,4.0,5.0,77,0.00,,,0.00,0,Wunderground v.1.15,2014-01-03 10:20:00,
2014-01-03 04:30:00,-9.8,-15.0,30.38,SSE,163,4.0,4.0,77,0.00,,,0.00,0,Wunderground v.1.15,2014-01-03 10:30:00,
2014-01-03 04:35:00,-9.7,-14.9,30.37,SSE,162,4.0,4.0,77,0.00,,,0.00,0,Wunderground v.1.15,2014-01-03 10:35:00,
2014-01-03 04:45:00,-9.2,-14.5,30.36,SSE,160,4.0,5.0,77,0.00,,,0.00,0,Wunderground v.1.15,2014-01-03 10:45:00,
2014-01-03 04:50:00,-8.9,-14.2,30.35,SSE,155,5.0,5.0,77,0.00,,,0.00,0,Wunderground v.1.15,2014-01-03 10:50:00,
2014-01-03 05:00:00,-8.4,-13.7,30.34,SE,142,5.0,5.0,77,0.00,,,0.00,0,Wunderground v.1.15,2014-01-03 11:00:00,
2014-01-03 05:10:00,-7.9,-13.2,30.33,SE,146,5.0,5.0,77,0.00,,,0.00,0,Wunderground v.1.15,2014-01-03 11:10:00,
2014-01-03 05:20:00,-7.2,-12.5,30.32,SSE,155,5.0,5.0,77,0.00,,,0.00,0,Wunderground v.1.15,2014-01-03 11:20:00,
2014-01-03 05:30:00,-6.7,-12.0,30.32,SSE,156,5.0,5.0,77,0.00,,,0.00,0,Wunderground v.1.15,2014-01-03 11:30:00,
2014-01-03 05:40:00,-6.2,-11.5,30.30,SSE,160,6.0,6.0,77,0.00,,,0.00,0,Wunderground v.1.15,2014-01-03 11:40:00,
2014-01-03 05:45:00,-6.1,-11.4,30.30,SSE,161,6.0,6.0,77,0.00,,,0.00,0,Wunderground v.1.15,2014-01-03 11:45:00,
2014-01-03 05:55:00,-5.8,-11.1,30.30,SSE,165,7.0,7.0,77,0.00,,,0.00,0,Wunderground v.1.15,2014-01-03 11:55:00,
2014-01-03 06:00:00,-5.5,-10.9,30.30,SSE,159,7.0,7.0,77,0.00,,,0.00,0,Wunderground v.1.15,2014-01-03 12:00:00,
2014-01-03 06:10:00,-4.9,-10.3,30.30,SSE,163,6.0,7.0,77,0.00,,,0.00,0,Wunderground v.1.15,2014-01-03 12:10:00,
2014-01-03 06:20:00,-4.4,-9.8,30.29,SSE,164,6.0,6.0,77,0.00,,,0.00,0,Wunderground v.1.15,2014-01-03 12:20:00,
2014-01-03 06:30:00,-3.8,-9.2,30.29,SSE,163,6.0,6.0,77,0.00,,,0.00,0,Wunderground v.1.15,2014-01-03 12:30:00,
2014-01-03 06:40:00,-3.3,-8.7,30.28,SSE,161,6.0,9.0,77,0.00,,,0.00,0,Wunderground v.1.15,2014-01-03 12:40:00,
2014-01-03 06:45:00,-3.1,-8.5,30.27,SSE,161,6.0,9.0,77,0.00,,,0.00,0,Wunderground v.1.15,2014-01-03 12:45:00,
2014-01-03 06:55:00,-2.4,-7.8,30.26,South,170,6.0,6.0,77,0.00,,,0.00,0,Wunderground v.1.15,2014-01-03 12:55:00,
2014-01-03 07:00:00,-1.9,-7.3,30.25,SSE,165,6.0,8.0,77,0.00,,,0.00,0,Wunderground v.1.15,2014-01-03 13:00:00,
2014-01-03 07:10:00,-1.5,-7.0,30.24,South,171,7.0,7.0,77,0.00,,,0.00,0,Wunderground v.1.15,2014-01-03 13:10:00,
2014-01-03 07:20:00,-1.2,-6.7,30.23,SSE,163,7.0,8.0,77,0.00,,,0.00,0,Wunderground v.1.15,2014-01-03 13:20:00,
2014-01-03 07:25:00,-0.9,-6.4,30.22,SSE,167,7.0,8.0,77,0.00,,,0.00,0,Wunderground v.1.15,2014-01-03 13:25:00,
2014-01-03 07:35:00,-0.4,-5.9,30.21,South,171,7.0,9.0,77,0.00,,,0.00,0,Wunderground v.1.15,2014-01-03 13:35:00,
2014-01-03 07:45:00,0.0,-5.8,30.21,SSE,164,7.0,8.0,76,0.00,,,0.00,0,Wunderground v.1.15,2014-01-03 13:45:00,
2014-01-03 07:55:00,0.6,-5.2,30.20,SSE,161,7.0,7.0,76,0.00,,,0.00,0,Wunderground v.1.15,2014-01-03 13:55:00,
2014-01-03 08:05:00,1.9,-3.9,30.19,SSE,164,7.0,8.0,76,0.00,,,0.00,9,Wunderground v.1.15,2014-01-03 14:05:00,
2014-01-03 08:10:00,2.4,-3.7,30.19,SSE,161,7.0,7.0,75,0.00,,,0.00,12,Wunderground v.1.15,2014-01-03 14:10:00,
2014-01-03 08:20:00,3.0,-3.4,30.18,SSE,157,7.0,7.0,74,0.00,,,0.00,21,Wunderground v.1.15,2014-01-03 14:20:00,
2014-01-03 08:25:00,3.5,-2.9,30.17,SSE,165,7.0,10.0,74,0.00,,,0.00,28,Wunderground v.1.15,2014-01-03 14:25:00,
2014-01-03 08:35:00,4.5,-2.3,30.16,SSE,161,8.0,8.0,73,0.00,,,0.00,33,Wunderground v.1.15,2014-01-03 14:35:00,
2014-01-03 08:40:00,5.1,-2.0,30.16,SSE,153,8.0,8.0,72,0.00,,,0.00,35,Wunderground v.1.15,2014-01-03 14:40:00,
2014-01-03 08:45:00,5.5,-1.9,30.15,SSE,164,7.0,8.0,71,0.00,,,0.00,35,Wunderground v.1.15,2014-01-03 14:45:00,
2014-01-03 08:55:00,6.2,-1.5,30.16,SSE,161,7.0,9.0,70,0.00,,,0.00,37,Wunderground v.1.15,2014-01-03 14:55:00,
2014-01-03 09:00:00,6.5,-1.5,30.15,South,178,8.0,10.0,69,0.00,,,0.00,46,Wunderground v.1.15,2014-01-03 15:00:00,
2014-01-03 09:10:00,7.2,-1.5,30.13,SSW,198,8.0,8.0,67,0.00,,,0.00,69,Wunderground v.1.15,2014-01-03 15:10:00,
2014-01-03 09:15:00,7.3,-1.4,30.13,South,182,8.0,10.0,67,0.00,,,0.00,72,Wunderground v.1.15,2014-01-03 15:15:00,
2014-01-03 09:20:00,7.4,-1.6,30.11,South,182,10.0,10.0,66,0.00,,,0.00,79,Wunderground v.1.15,2014-01-03 15:20:00,
2014-01-03 09:30:00,7.8,-1.5,30.09,South,184,10.0,10.0,65,0.00,,,0.00,91,Wunderground v.1.15,2014-01-03 15:30:00,
2014-01-03 09:40:00,8.0,-1.3,30.08,SSE,160,10.0,18.0,65,0.00,,,0.00,102,Wunderground v.1.15,2014-01-03 15:40:00,
2014-01-03 09:50:00,8.7,-0.7,30.08,SE,136,10.0,14.0,65,0.00,,,0.00,114,Wunderground v.1.15,2014-01-03 15:50:00,
2014-01-03 10:00:00,9.3,-0.4,30.07,SSW,199,9.0,9.0,64,0.00,,,0.00,97,Wunderground v.1.15,2014-01-03 16:00:00,
2014-01-03 10:05:00,9.6,0.2,30.06,South,171,10.0,10.0,65,0.00,,,0.00,111,Wunderground v.1.15,2014-01-03 16:05:00,
2014-01-03 10:15:00,10.0,0.6,30.06,SSE,165,8.0,9.0,65,0.00,,,0.00,118,Wunderground v.1.15,2014-01-03 16:15:00,
2014-01-03 10:25:00,10.4,1.0,30.04,South,187,8.0,9.0,65,0.00,,,0.00,130,Wunderground v.1.15,2014-01-03 16:25:00,
2014-01-03 10:30:00,10.5,1.4,30.04,South,171,9.0,9.0,66,0.00,,,0.00,146,Wunderground v.1.15,2014-01-03 16:30:00,
2014-01-03 10:40:00,11.0,2.2,30.04,SW,215,10.0,10.0,67,0.00,,,0.00,155,Wunderground v.1.15,2014-01-03 16:40:00,
2014-01-03 10:50:00,11.3,3.1,30.02,SSW,209,9.0,9.0,69,0.00,,,0.00,120,Wunderground v.1.15,2014-01-03 16:50:00,
2014-01-03 10:55:00,11.4,3.2,30.02,South,190,8.0,10.0,69,0.00,,,0.00,113,Wunderground v.1.15,2014-01-03 16:55:00,
2014-01-03 11:05:00,11.4,3.2,30.00,SSE,148,10.0,17.0,69,0.00,,,0.00,183,Wunderground v.1.15,2014-01-03 17:05:00,
2014-01-03 11:10:00,11.7,3.8,29.99,SSW,207,11.0,11.0,70,0.00,,,0.00,229,Wunderground v.1.15,2014-01-03 17:10:00,
2014-01-03 11:20:00,12.4,4.5,29.97,South,175,9.0,9.0,70,0.00,,,0.00,253,Wunderground v.1.15,2014-01-03 17:20:00,
2014-01-03 11:25:00,12.6,4.7,29.97,SSW,199,9.0,9.0,70,0.00,,,0.00,290,Wunderground v.1.15,2014-01-03 17:25:00,
2014-01-03 11:35:00,12.8,5.5,29.96,SSW,207,8.0,14.0,72,0.00,,,0.00,251,Wunderground v.1.15,2014-01-03 17:35:00,
2014-01-03 11:45:00,13.0,5.7,29.96,SE,141,8.0,14.0,72,0.00,,,0.00,229,Wunderground v.1.15,2014-01-03 17:45:00,
2014-01-03 11:50:00,13.0,6.0,29.96,SSW,203,8.0,8.0,73,0.00,,,0.00,214,Wunderground v.1.15,2014-01-03 17:50:00,
2014-01-03 12:00:00,12.9,6.2,29.94,SSW,206,9.0,9.0,74,0.00,,,0.00,207,Wunderground v.1.15,2014-01-03 18:00:00,
2014-01-03 12:05:00,13.1,6.4,29.94,South,189,8.0,9.0,74,0.00,,,0.00,199,Wunderground v.1.15,2014-01-03 18:05:00,
2014-01-03 12:15:00,13.2,6.8,29.93,SSW,207,8.0,8.0,75,0.00,,,0.00,272,Wunderground v.1.15,2014-01-03 18:15:00,
2014-01-03 12:20:00,13.3,7.1,29.93,SSE,161,8.0,8.0,76,0.00,,,0.00,306,Wunderground v.1.15,2014-01-03 18:20:00,
2014-01-03 12:25:00,13.4,7.2,29.92,South,191,8.0,8.0,76,0.00,,,0.00,274,Wunderground v.1.15,2014-01-03 18:25:00,
2014-01-03 12:35:00,13.5,7.6,29.91,South,176,8.0,8.0,77,0.00,,,0.00,225,Wunderground v.1.15,2014-01-03 18:35:00,
2014-01-03 12:45:00,13.6,8.0,29.89,South,184,7.0,10.0,78,0.00,,,0.00,183,Wunderground v.1.15,2014-01-03 18:45:00,
2014-01-03 12:55:00,13.7,8.4,29.88,South,173,7.0,11.0,79,0.00,,,0.00,181,Wunderground v.1.15,2014-01-03 18:55:00,
2014-01-03 13:00:00,13.9,8.6,29.87,SSW,213,7.0,7.0,79,0.00,,,0.00,186,Wunderground v.1.15,2014-01-03 19:00:00,
2014-01-03 13:10:00,14.1,8.8,29.86,SW,217,6.0,6.0,79,0.00,,,0.00,178,Wunderground v.1.15,2014-01-03 19:10:00,
2014-01-03 13:15:00,14.3,9.3,29.85,SSW,200,6.0,6.0,80,0.00,,,0.00,171,Wunderground v.1.15,2014-01-03 19:15:00,
2014-01-03 13:25:00,14.6,9.3,29.84,South,183,6.0,8.0,79,0.00,,,0.00,167,Wunderground v.1.15,2014-01-03 19:25:00,
2014-01-03 13:35:00,14.9,9.8,29.84,SSW,213,6.0,7.0,80,0.00,,,0.00,146,Wunderground v.1.15,2014-01-03 19:35:00,
2014-01-03 13:45:00,15.0,9.9,29.83,SE,145,7.0,14.0,80,0.00,,,0.00,163,Wunderground v.1.15,2014-01-03 19:45:00,
2014-01-03 13:50:00,15.0,9.9,29.83,South,183,8.0,8.0,80,0.00,,,0.00,167,Wunderground v.1.15,2014-01-03 19:50:00,
2014-01-03 14:00:00,15.3,10.5,29.82,SSW,194,7.0,7.0,81,0.00,,,0.00,163,Wunderground v.1.15,2014-01-03 20:00:00,
2014-01-03 14:05:00,15.5,10.7,29.82,SSE,150,8.0,12.0,81,0.00,,,0.00,148,Wunderground v.1.15,2014-01-03 20:05:00,
2014-01-03 14:15:00,15.9,10.8,29.81,SSE,162,8.0,12.0,80,0.00,,,0.00,139,Wunderground v.1.15,2014-01-03 20:15:00,
2014-01-03 14:20:00,16.1,11.0,29.81,SSW,193,7.0,7.0,80,0.00,,,0.00,139,Wunderground v.1.15,2014-01-03 20:20:00,
2014-01-03 14:25:00,16.2,11.1,29.81,SW,217,7.0,9.0,80,0.00,,,0.00,149,Wunderground v.1.15,2014-01-03 20:25:00,
2014-01-03 14:30:00,16.3,11.2,29.80,South,183,8.0,8.0,80,0.00,,,0.00,130,Wunderground v.1.15,2014-01-03 20:30:00,
2014-01-03 14:40:00,16.2,11.1,29.79,SSW,203,9.0,9.0,80,0.00,,,0.00,127,Wunderground v.1.15,2014-01-03 20:40:00,
2014-01-03 14:45:00,16.2,11.1,29.79,SSW,196,8.0,9.0,80,0.00,,,0.00,135,Wunderground v.1.15,2014-01-03 20:45:00,
2014-01-03 14:55:00,16.5,11.4,29.79,SSE,150,7.0,18.0,80,0.00,,,0.00,148,Wunderground v.1.15,2014-01-03 20:55:00,
2014-01-03 15:05:00,16.8,11.4,29.78,SW,227,7.0,10.0,79,0.00,,,0.00,114,Wunderground v.1.15,2014-01-03 21:05:00,
2014-01-03 15:10:00,16.8,11.4,29.77,SSW,205,8.0,8.0,79,0.00,,,0.00,95,Wunderground v.1.15,2014-01-03 21:10:00,
2014-01-03 15:20:00,16.6,11.5,29.77,SSW,201,7.0,8.0,80,0.00,,,0.00,79,Wunderground v.1.15,2014-01-03 21:20:00,
2014-01-03 15:30:00,16.4,11.6,29.77,SSW,199,8.0,10.0,81,0.00,,,0.00,72,Wunderground v.1.15,2014-01-03 21:30:00,
2014-01-03 15:40:00,16.6,11.5,29.76,South,179,8.0,8.0,80,0.00,,,0.00,58,Wunderground v.1.15,2014-01-03 21:40:00,
2014-01-03 15:50:00,16.8,12.0,29.76,SW,215,8.0,8.0,81,0.00,,,0.00,49,Wunderground v.1.15,2014-01-03 21:50:00,
2014-01-03 16:00:00,17.1,12.0,29.75,SSW,205,7.0,7.0,80,0.00,,,0.00,32,Wunderground v.1.15,2014-01-03 22:00:00,
2014-01-03 16:10:00,17.3,12.2,29.75,SSE,150,6.0,10.0,80,0.00,,,0.00,23,Wunderground v.1.15,2014-01-03 22:10:00,
2014-01-03 16:20:00,17.3,12.2,29.75,South,191,6.0,6.0,80,0.00,,,0.00,18,Wunderground v.1.15,2014-01-03 22:20:00,
2014-01-03 16:25:00,17.2,12.1,29.75,SSW,209,6.0,6.0,80,0.00,,,0.00,12,Wunderground v.1.15,2014-01-03 22:25:00,
2014-01-03 16:35:00,16.7,12.2,29.75,South,169,6.0,7.0,82,0.00,,,0.00,5,Wunderground v.1.15,2014-01-03 22:35:00,
2014-01-03 16:45:00,16.7,12.4,29.74,SSW,203,6.0,10.0,83,0.00,,,0.00,0,Wunderground v.1.15,2014-01-03 22:45:00,
2014-01-03 16:55:00,17.0,12.7,29.73,South,186,7.0,7.0,83,0.00,,,0.00,0,Wunderground v.1.15,2014-01-03 22:55:00,
2014-01-03 17:05:00,17.4,12.8,29.73,SSW,195,6.0,6.0,82,0.00,,,0.00,0,Wunderground v.1.15,2014-01-03 23:05:00,
2014-01-03 17:15:00,17.5,12.9,29.72,SSW,207,7.0,7.0,82,0.00,,,0.00,0,Wunderground v.1.15,2014-01-03 23:15:00,
2014-01-03 17:25:00,17.8,13.2,29.71,South,175,6.0,7.0,82,0.00,,,0.00,0,Wunderground v.1.15,2014-01-03 23:25:00,
2014-01-03 17:35:00,17.9,13.3,29.70,South,183,7.0,8.0,82,0.00,,,0.00,0,Wunderground v.1.15,2014-01-03 23:35:00,
2014-01-03 17:45:00,18.0,13.4,29.71,SSW,200,6.0,7.0,82,0.00,,,0.00,0,Wunderground v.1.15,2014-01-03 23:45:00,
2014-01-03 17:55:00,18.1,13.8,29.70,SW,214,6.0,8.0,83,0.00,,,0.00,0,Wunderground v.1.15,2014-01-03 23:55:00,
2014-01-03 18:00:00,18.2,13.9,29.70,SSW,196,7.0,7.0,83,0.00,,,0.00,0,Wunderground v.1.15,2014-01-04 00:00:00,
2014-01-03 18:10:00,18.4,14.1,29.69,SSW,198,7.0,7.0,83,0.00,,,0.00,0,Wunderground v.1.15,2014-01-04 00:10:00,
2014-01-03 18:15:00,18.5,14.2,29.70,SSW,203,6.0,7.0,83,0.00,,,0.00,0,Wunderground v.1.15,2014-01-04 00:15:00,
2014-01-03 18:25:00,18.8,14.2,29.70,SSW,205,6.0,6.0,82,0.00,,,0.00,0,Wunderground v.1.15,2014-01-04 00:25:00,
2014-01-03 18:35:00,18.9,14.3,29.70,SSE,162,5.0,5.0,82,0.00,,,0.00,0,Wunderground v.1.15,2014-01-04 00:35:00,
2014-01-03 18:45:00,19.1,14.5,29.69,SSE,153,4.0,6.0,82,0.00,,,0.00,0,Wunderground v.1.15,2014-01-04 00:45:00,
2014-01-03 18:55:00,19.7,14.8,29.68,SSW,192,6.0,10.0,81,0.00,,,0.00,0,Wunderground v.1.15,2014-01-04 00:55:00,
2014-01-03 19:05:00,19.7,14.8,29.68,South,170,5.0,7.0,81,0.00,,,0.00,0,Wunderground v.1.15,2014-01-04 01:05:00,
2014-01-03 19:15:00,19.8,14.6,29.68,SSW,207,5.0,8.0,80,0.00,,,0.00,0,Wunderground v.1.15,2014-01-04 01:15:00,
2014-01-03 19:20:00,20.0,14.8,29.68,SSW,193,6.0,6.0,80,0.00,,,0.00,0,Wunderground v.1.15,2014-01-04 01:20:00,
2014-01-03 19:30:00,20.2,15.0,29.68,SSW,205,5.0,5.0,80,0.00,,,0.00,0,Wunderground v.1.15,2014-01-04 01:30:00,
2014-01-03 19:40:00,20.5,15.3,29.67,SSW,206,5.0,5.0,80,0.00,,,0.00,0,Wunderground v.1.15,2014-01-04 01:40:00,
2014-01-03 19:50:00,20.7,15.5,29.67,SSW,205,5.0,6.0,80,0.00,,,0.00,0,Wunderground v.1.15,2014-01-04 01:50:00,
2014-01-03 20:00:00,20.9,15.7,29.66,South,177,5.0,6.0,80,0.00,,,0.00,0,Wunderground v.1.15,2014-01-04 02:00:00,
2014-01-03 20:10:00,21.1,15.9,29.65,South,173,6.0,6.0,80,0.00,,,0.00,0,Wunderground v.1.15,2014-01-04 02:10:00,
2014-01-03 20:15:00,21.2,16.0,29.65,SSE,157,6.0,6.0,80,0.00,,,0.00,0,Wunderground v.1.15,2014-01-04 02:15:00,
2014-01-03 20:25:00,21.3,16.1,29.65,South,169,6.0,6.0,80,0.00,,,0.00,0,Wunderground v.1.15,2014-01-04 02:25:00,
2014-01-03 20:30:00,21.4,16.2,29.64,South,183,6.0,6.0,80,0.00,,,0.00,0,Wunderground v.1.15,2014-01-04 02:30:00,
2014-01-03 20:40:00,21.6,16.4,29.64,South,184,6.0,6.0,80,0.00,,,0.00,0,Wunderground v.1.15,2014-01-04 02:40:00,
2014-01-03 20:50:00,21.8,16.6,29.63,SSE,163,5.0,7.0,80,0.00,,,0.00,0,Wunderground v.1.15,2014-01-04 02:50:00,
2014-01-03 20:55:00,21.9,16.7,29.63,South,190,6.0,7.0,80,0.00,,,0.00,0,Wunderground v.1.15,2014-01-04 02:55:00,
2014-01-03 21:05:00,22.2,17.0,29.63,South,190,5.0,6.0,80,0.00,,,0.00,0,Wunderground v.1.15,2014-01-04 03:05:00,
2014-01-03 21:10:00,22.4,17.2,29.63,South,189,5.0,5.0,80,0.00,,,0.00,0,Wunderground v.1.15,2014-01-04 03:10:00,
2014-01-03 21:15:00,22.5,17.3,29.62,SSW,195,5.0,7.0,80,0.00,,,0.00,0,Wunderground v.1.15,2014-01-04 03:15:00,
2014-01-03 21:20:00,22.7,17.5,29.62,SSW,199,5.0,5.0,80,0.00,,,0.00,0,Wunderground v.1.15,2014-01-04 03:20:00,
2014-01-03 21:25:00,22.9,17.7,29.62,SSE,163,6.0,8.0,80,0.00,,,0.00,0,Wunderground v.1.15,2014-01-04 03:25:00,
2014-01-03 21:35:00,23.2,17.9,29.62,South,172,6.0,8.0,80,0.00,,,0.00,0,Wunderground v.1.15,2014-01-04 03:35:00,
2014-01-03 21:45:00,23.5,18.2,29.62,South,183,6.0,6.0,80,0.00,,,0.00,0,Wunderground v.1.15,2014-01-04 03:45:00,
2014-01-03 21:50:00,23.6,18.0,29.61,SSE,160,6.0,9.0,79,0.00,,,0.00,0,Wunderground v.1.15,2014-01-04 03:50:00,
2014-01-03 22:00:00,23.7,18.1,29.60,South,182,6.0,6.0,79,0.00,,,0.00,0,Wunderground v.1.15,2014-01-04 04:00:00,
2014-01-03 22:05:00,23.7,18.1,29.60,SSW,194,6.0,7.0,79,0.00,,,0.00,0,Wunderground v.1.15,2014-01-04 04:05:00,
2014-01-03 22:15:00,23.8,18.5,29.60,South,190,5.0,5.0,80,0.00,,,0.00,0,Wunderground v.1.15,2014-01-04 04:15:00,
2014-01-03 22:25:00,24.0,18.7,29.60,SSW,195,5.0,6.0,80,0.00,,,0.00,0,Wunderground v.1.15,2014-01-04 04:25:00,
2014-01-03 22:30:00,24.1,18.8,29.59,South,173,5.0,7.0,80,0.00,,,0.00,0,Wunderground v.1.15,2014-01-04 04:30:00,
2014-01-03 22:35:00,24.2,18.9,29.59,SSW,196,5.0,7.0,80,0.00,,,0.00,0,Wunderground v.1.15,2014-01-04 04:35:00,
2014-01-03 22:45:00,24.4,19.1,29.60,SSW,202,6.0,7.0,80,0.00,,,0.00,0,Wunderground v.1.15,2014-01-04 04:45:00,
2014-01-03 22:50:00,24.5,19.2,29.60,South,188,5.0,6.0,80,0.00,,,0.00,0,Wunderground v.1.15,2014-01-04 04:50:00,
2014-01-03 23:00:00,24.7,19.4,29.59,SSW,202,5.0,5.0,80,0.00,,,0.00,0,Wunderground v.1.15,2014-01-04 05:00:00,
2014-01-03 23:05:00,24.7,19.4,29.59,SSW,195,5.0,5.0,80,0.00,,,0.00,0,Wunderground v.1.15,2014-01-04 05:05:00,
2014-01-03 23:10:00,24.8,19.5,29.59,South,182,5.0,5.0,80,0.00,,,0.00,0,Wunderground v.1.15,2014-01-04 05:10:00,
2014-01-03 23:15:00,24.7,19.7,29.59,South,188,4.0,5.0,81,0.00,,,0.00,0,Wunderground v.1.15,2014-01-04 05:15:00,
2014-01-03 23:20:00,24.7,20.0,29.59,SSW,197,5.0,6.0,82,0.00,,,0.00,0,Wunderground v.1.15,2014-01-04 05:20:00,
2014-01-03 23:25:00,24.8,20.1,29.58,South,174,4.0,7.0,82,0.00,,,0.00,0,Wunderground v.1.15,2014-01-04 05:25:00,
2014-01-03 23:30:00,24.8,20.4,29.58,South,185,5.0,5.0,83,0.00,,,0.00,0,Wunderground v.1.15,2014-01-04 05:30:00,
2014-01-03 23:35:00,24.8,20.7,29.58,SSW,194,5.0,5.0,84,0.00,,,0.00,0,Wunderground v.1.15,2014-01-04 05:35:00,
2014-01-03 23:45:00,24.8,20.9,29.57,SSE,167,4.0,5.0,85,0.00,,,0.01,0,Wunderground v.1.15,2014-01-04 05:45:00,
2014-01-03 23:55:00,24.9,21.3,29.56,South,181,4.0,4.0,86,0.00,,,0.01,0,Wunderground v.1.15,2014-01-04 05:55:00,